Date,TemperatureHighF,TemperatureAvgF,TemperatureLowF,DewpointHighF,DewpointAvgF,DewpointLowF,HumidityHigh,HumidityAvg,HumidityLow,PressureMaxIn,PressureMinIn,WindSpeedMaxMPH,WindSpeedAvgMPH,GustSpeedMaxMPH,PrecipitationSumIn
2012-4-11,56.5,52.5,49.1,47.0,45.3,40.1,82,77,69,30.12,30.05,18,7,20,0.73
2012-4-12,59.2,52.4,47.6,49.0,43.9,38.7,82,73,65,30.21,30.14,18,4,21,0.00
2012-5-15,74.5,65.7,51.9,55.5,52.8,45.9,84,65,43,29.98,29.88,17,4,17,0.00
2012-5-16,77.9,66.8,54.4,58.1,54.2,48.1,84,66,46,29.94,29.82,13,2,14,0.00
2012-5-17,73.2,64.2,52.8,60.8,54.7,47.8,84,72,59,29.88,29.81,17,4,17,0.00
2012-5-18,69.8,60.0,51.5,54.5,50.6,46.2,84,72,54,29.92,29.85,15,3,18,0.00
2012-5-19,62.5,61.5,59.9,53.7,52.8,51.0,75,73,71,29.95,29.94,6,3,0,0.00
2012-5-21,78.5,73.9,66.7,61.0,57.7,54.3,73,57,48,29.98,29.91,12,4,0,0.00
2012-5-22,79.4,72.7,60.1,59.3,57.4,54.8,83,60,46,29.94,29.83,13,5,13,0.00
2012-5-23,56.2,55.4,54.8,51.4,48.5,45.9,84,78,72,29.82,29.80,3,2,0,0.00
2012-5-26,63.1,58.3,51.4,50.1,48.3,46.2,85,70,56,30.07,30.01,16,7,20,0.00
2012-5-27,69.4,63.0,48.9,52.4,49.5,44.0,84,62,46,30.06,29.98,15,6,18,0.00
2012-5-28,78.3,71.1,61.9,55.8,48.8,41.7,58,46,29,29.98,29.92,16,5,17,0.00
2012-5-29,74.6,67.4,55.5,55.7,50.7,42.9,80,56,45,30.01,29.96,13,4,14,0.00
2012-5-30,73.1,64.1,50.8,56.9,53.2,42.1,84,69,55,30.05,29.98,14,4,14,0.00
2012-5-31,77.5,66.7,54.6,61.3,55.1,49.1,84,67,51,30.00,29.82,13,3,0,0.00
2012-6-1,75.0,65.9,55.2,62.3,57.0,48.2,84,73,60,29.88,29.82,14,4,16,0.00
2012-6-2,71.2,60.0,52.5,61.5,51.6,44.1,83,74,69,29.92,29.85,14,3,18,0.00
2012-6-3,71.2,66.7,58.6,61.4,59.0,52.4,84,77,69,29.95,29.89,15,6,17,0.00
2012-6-4,61.9,59.6,56.4,57.0,52.6,46.4,84,78,69,30.02,29.96,12,3,0,0.00
2012-6-5,62.7,60.8,57.9,47.8,38.7,32.2,69,45,32,29.92,29.91,10,3,0,0.01
2012-6-6,77.3,65.1,56.0,51.9,41.0,30.0,64,42,29,29.91,29.80,13,3,15,0.00
2012-6-7,79.8,72.3,55.7,55.6,51.3,46.8,81,49,38,29.89,29.84,14,4,16,0.00
2012-6-8,73.3,67.6,57.9,59.9,55.6,48.6,83,66,53,29.89,29.84,14,4,18,0.00
2012-6-9,69.2,61.0,54.9,58.6,52.1,45.3,82,73,66,29.88,29.84,12,3,16,0.00
2012-6-11,74.1,68.7,58.9,60.8,58.5,53.4,84,70,61,30.00,29.94,14,6,18,0.00
2012-6-12,73.9,65.9,55.6,62.0,56.7,45.5,84,72,65,30.00,29.90,12,4,13,0.00
2012-6-13,68.8,62.3,55.1,60.4,54.7,46.1,85,76,67,29.90,29.81,13,4,15,0.01
2012-6-14,71.1,62.7,55.9,60.6,53.6,46.1,84,72,67,29.87,29.83,17,5,18,0.00
2012-6-15,71.3,62.4,56.9,60.8,54.8,46.4,85,77,67,29.89,29.83,15,4,17,0.00
2012-6-16,73.0,63.5,57.2,61.7,56.1,50.9,85,77,66,29.91,29.83,13,3,15,0.00
2012-6-17,78.6,66.4,54.6,63.6,56.2,45.4,85,70,59,29.96,29.89,12,3,0,0.00
2012-6-18,69.5,60.6,55.4,60.6,52.4,46.4,85,75,68,29.96,29.87,14,3,16,0.01
2012-6-19,69.8,62.1,54.8,59.7,54.1,45.9,85,75,68,29.94,29.84,13,4,15,0.00
2012-6-20,71.5,61.0,53.9,60.2,52.3,44.4,85,73,65,29.89,29.84,13,3,14,0.00
2012-6-21,69.7,63.5,55.1,60.4,55.3,45.9,85,75,67,29.95,29.89,15,5,15,0.00
2012-6-22,70.1,62.4,50.2,59.6,53.2,41.2,84,72,67,29.96,29.86,15,5,19,0.01
2012-6-23,71.7,64.8,55.1,59.4,55.3,45.5,84,72,62,29.89,29.84,16,5,18,0.00
2012-6-24,76.3,63.8,53.5,57.3,53.3,49.1,85,70,45,29.98,29.88,15,3,17,0.00
2012-6-27,81.5,74.0,57.8,56.4,52.4,44.5,65,48,36,29.94,29.85,16,5,17,0.00
2012-6-28,79.6,70.4,58.9,59.8,51.9,42.4,73,52,43,30.03,29.94,15,4,17,0.00
2012-6-29,77.3,70.0,55.1,57.7,53.9,45.0,83,57,46,30.04,29.96,15,4,16,0.00
2012-6-30,78.3,71.9,59.8,60.3,57.1,52.9,80,60,45,29.97,29.88,14,5,15,0.00
2012-7-1,74.1,68.2,57.8,61.4,58.5,47.1,83,72,61,29.93,29.83,15,4,16,0.00
2012-7-2,74.3,68.5,55.1,62.0,58.2,46.3,83,70,63,29.90,29.85,16,5,17,0.00
2012-7-3,72.7,67.5,57.6,62.5,59.4,50.3,85,75,69,29.94,29.86,14,6,17,0.00
2012-7-4,72.6,66.0,59.7,63.0,58.8,52.1,85,78,70,29.96,29.91,15,5,16,0.00
2012-7-5,71.8,64.3,57.8,61.9,57.0,48.9,85,77,68,30.01,29.94,14,4,17,0.00
2012-7-6,73.1,62.1,55.8,61.5,53.7,47.7,86,74,65,30.03,29.97,13,3,14,0.00
2012-7-7,72.6,62.3,51.1,60.8,53.6,43.1,84,73,66,30.03,29.98,11,4,0,0.01
2012-7-8,77.9,69.8,53.0,59.3,55.6,43.9,84,62,42,30.03,29.97,11,4,0,0.01
2012-7-9,83.2,72.2,57.1,58.5,53.2,48.1,83,54,35,29.98,29.89,12,3,0,0.00
2012-7-10,66.6,65.4,63.5,56.9,56.5,55.8,76,73,70,29.90,29.89,0,0,0,0.00
2012-7-11,83.5,71.3,57.0,62.5,57.2,49.7,84,63,43,29.90,29.80,13,3,0,0.00
2012-7-12,81.6,73.2,60.3,66.5,62.3,55.2,84,69,59,29.92,29.82,8,3,0,0.00
2012-7-13,91.1,79.0,66.8,64.8,62.2,59.1,79,58,39,29.95,29.86,11,3,0,0.00
2012-7-14,77.5,71.1,60.4,62.6,58.4,49.9,82,65,55,29.97,29.89,13,4,0,0.00
2012-7-15,76.8,66.2,57.2,62.4,57.3,49.0,85,74,58,29.98,29.88,15,4,16,0.00
2012-7-16,74.3,66.1,56.5,59.0,56.3,50.7,86,71,54,29.99,29.92,17,6,18,0.00
2012-7-17,68.9,62.8,58.6,56.6,54.7,53.1,82,75,65,30.02,29.98,8,2,0,0.00
2012-7-20,73.9,67.3,63.9,60.5,59.1,57.4,81,75,63,29.98,29.95,5,1,0,0.00
2012-7-21,83.1,74.8,63.7,63.4,60.2,56.4,80,61,48,29.99,29.88,12,4,15,0.00
2012-7-22,79.5,67.9,56.8,64.3,57.6,48.2,85,70,56,29.98,29.91,12,3,13,0.00
2012-7-25,73.9,62.9,52.3,60.5,53.9,44.3,86,73,59,30.05,29.96,15,4,17,0.01
2012-7-26,73.4,61.1,51.8,59.8,51.9,43.6,85,72,59,30.05,29.96,14,3,16,0.01
2012-7-27,73.3,64.5,53.6,59.0,55.2,46.8,86,73,58,30.05,29.97,13,4,16,0.00
2012-7-28,76.8,67.2,56.9,59.9,53.7,46.7,83,63,45,30.02,29.95,15,3,15,0.00
2012-7-29,77.0,68.0,57.6,61.6,55.5,49.3,79,65,52,30.01,29.92,13,3,14,0.00
2012-7-30,78.3,66.6,57.3,63.0,56.3,46.4,86,70,56,30.00,29.92,14,2,0,0.00
2012-7-31,76.5,68.3,58.9,63.3,58.2,49.8,86,71,58,30.03,29.97,13,3,16,0.00
2012-8-1,81.4,70.0,56.5,62.8,57.8,48.3,85,67,38,30.08,29.98,14,4,13,0.00
2012-8-2,74.9,63.9,57.1,59.8,55.1,47.8,86,74,52,30.01,29.90,8,1,0,0.00
2012-8-3,77.2,64.7,54.3,62.8,56.8,46.7,86,76,58,29.95,29.85,13,2,16,0.06
2012-8-4,76.0,65.1,58.0,64.9,57.2,49.1,87,76,66,29.97,29.86,16,3,16,0.04
2012-8-5,79.8,65.4,54.5,64.9,57.3,47.3,86,76,57,30.02,29.95,12,2,0,0.00
2012-8-7,89.7,85.2,76.6,64.7,61.3,58.5,54,45,39,29.97,29.88,14,4,14,0.00
2012-8-8,87.8,80.7,72.0,63.9,60.4,55.4,63,51,42,29.94,29.86,12,4,0,0.00
2012-8-9,89.0,81.3,69.3,65.3,60.3,49.0,68,50,39,29.93,29.82,12,3,0,0.00
2012-8-10,92.5,80.4,63.5,64.0,59.3,50.9,82,50,32,29.83,29.72,13,3,0,0.00
2012-8-11,90.3,82.4,70.2,65.7,61.7,56.9,75,51,37,29.84,29.77,11,4,0,0.00
2012-8-12,92.4,83.8,73.2,63.2,58.4,50.2,61,44,27,29.86,29.78,14,4,0,0.00
2012-8-13,89.5,80.2,70.2,64.6,57.3,50.2,64,46,35,29.86,29.80,12,3,0,0.00
2012-8-16,89.6,82.6,73.1,58.7,56.4,49.8,59,42,30,29.91,29.85,12,4,0,0.00
2012-8-17,86.1,81.4,72.9,63.8,57.9,48.7,52,45,38,29.94,29.91,8,3,0,0.00
2012-8-23,76.1,69.0,60.2,66.2,61.7,53.6,87,78,69,29.97,29.88,13,5,15,0.01
2012-8-24,76.5,68.9,60.7,66.1,60.6,53.1,87,75,66,29.96,29.86,14,4,17,0.00
2012-8-25,75.4,66.1,59.1,63.9,58.4,51.5,88,77,63,29.93,29.85,14,4,15,0.00
2012-8-26,77.0,67.5,56.5,60.5,56.4,48.6,87,68,52,29.99,29.91,13,4,15,0.00
2012-8-27,86.7,74.5,63.4,57.5,50.8,37.8,72,45,28,30.00,29.92,13,4,16,0.00
2012-8-28,89.5,81.0,70.8,61.2,47.6,36.7,47,32,20,29.95,29.85,12,3,0,0.00
2012-8-29,84.1,84.1,84.1,51.0,51.0,51.0,32,32,32,29.81,29.81,0,0,0,0.00
2012-8-31,79.6,68.4,62.8,60.2,56.0,53.1,73,65,50,29.93,29.87,10,3,0,0.00
2012-9-1,82.5,70.6,57.8,59.9,52.4,42.3,74,54,34,29.97,29.91,14,3,14,0.00
2012-9-2,83.3,76.4,61.6,58.1,52.7,41.2,76,45,32,29.96,29.89,14,4,14,0.00
2012-9-3,82.8,74.9,64.5,59.6,54.3,38.4,80,51,27,29.99,29.93,11,3,0,0.00
2012-9-4,88.6,75.2,63.3,58.9,50.9,29.8,74,44,22,30.03,29.93,12,3,0,0.00
2012-9-5,76.3,70.8,64.3,61.5,49.9,21.8,86,52,15,30.02,29.93,8,2,0,0.01
2012-9-6,83.7,74.1,63.7,65.7,59.6,56.0,79,61,50,30.01,29.93,15,4,17,0.00
2012-9-7,78.0,73.4,68.7,64.3,62.6,60.7,78,69,63,30.05,29.99,6,1,0,0.00
2012-9-8,84.4,75.4,66.0,65.2,61.7,59.1,80,63,51,29.97,29.86,11,3,0,0.00
2012-9-9,85.3,70.9,63.2,64.8,60.4,58.0,84,72,49,29.90,29.82,11,2,0,0.00
2012-9-10,87.5,76.7,68.5,68.8,63.6,59.6,80,65,52,29.93,29.85,13,4,15,0.00
2012-9-11,77.5,72.6,68.0,66.8,64.3,62.3,82,76,69,29.95,29.89,11,2,0,0.00
2012-9-28,68.8,58.0,54.5,62.9,51.3,47.8,87,78,76,29.97,29.90,5,1,0,0.01
2012-10-1,84.7,79.2,76.3,56.8,55.4,52.6,48,44,37,29.89,29.87,5,2,0,0.00
2012-10-2,95.4,84.0,74.3,55.7,48.3,36.8,48,30,17,29.90,29.84,12,3,0,0.00
2012-10-3,76.7,66.8,59.2,60.8,51.9,42.3,86,62,31,30.05,29.88,7,1,0,0.00
2012-10-4,74.2,61.8,53.0,59.7,53.4,45.6,87,74,58,30.12,30.04,12,3,14,0.00
2012-10-5,57.9,57.3,56.3,54.1,53.5,52.1,87,87,86,30.07,30.06,2,1,0,0.00
2012-10-14,80.2,76.0,72.6,52.5,45.7,41.1,49,35,25,30.00,29.99,10,5,0,0.00
2012-10-15,92.4,80.3,71.1,58.3,46.4,38.6,58,31,16,29.99,29.88,15,4,19,0.00
2012-10-16,78.3,76.7,74.5,43.0,37.8,34.0,31,25,21,29.90,29.87,5,2,0,0.00
2012-10-17,85.2,82.8,79.9,52.5,46.0,40.8,38,28,21,29.87,29.84,5,2,0,0.00
2012-10-18,85.2,83.9,81.9,41.9,40.0,39.0,23,21,20,29.91,29.87,14,5,18,0.00
2012-10-20,67.3,63.5,60.9,61.9,58.4,54.1,89,83,78,29.93,29.84,10,2,0,0.02
2012-10-21,72.9,64.7,58.6,61.5,54.3,-99.9,89,77,62,29.94,29.87,14,4,16,0.00
2012-10-22,61.1,59.1,57.6,57.1,54.1,52.8,89,84,78,29.99,29.96,12,3,15,0.00
2012-10-23,64.8,59.4,52.2,53.6,50.3,47.5,90,73,55,30.01,29.96,11,4,15,0.00
2012-10-24,54.7,54.5,54.4,44.8,44.2,43.6,70,68,66,29.99,29.99,6,4,0,0.00
2012-10-25,69.5,67.9,66.9,42.1,40.5,36.7,39,37,31,30.05,30.02,19,10,25,0.00
2012-10-26,77.0,71.4,66.8,37.3,28.1,17.8,32,20,13,30.08,29.96,48,22,57,0.00
2012-10-27,80.1,74.7,71.8,24.8,19.5,14.6,13,12,12,29.93,29.89,43,26,47,0.00
2012-10-28,76.0,71.7,69.3,40.7,37.2,27.7,33,29,21,30.01,29.96,5,1,0,0.00
2012-10-29,70.3,65.8,63.3,54.1,42.2,28.6,70,45,25,30.07,30.04,6,2,0,0.00
2012-12-1,62.6,59.7,57.5,59.6,55.1,51.9,91,85,80,30.20,30.10,9,3,0,0.11
2012-12-2,60.3,57.7,56.3,54.8,52.7,51.4,84,83,81,30.16,30.08,12,3,16,0.28
2012-12-3,64.7,59.1,54.8,60.3,55.4,52.1,92,88,81,30.21,30.13,9,3,0,0.06
2012-12-4,61.2,55.6,52.9,57.7,52.2,47.9,92,88,82,30.27,30.17,7,2,0,0.02
2012-12-5,65.0,56.9,50.3,55.9,48.0,38.5,91,74,47,30.17,30.03,6,2,0,0.00
2012-12-6,67.5,58.5,49.7,59.7,52.4,42.9,91,81,50,30.03,29.91,11,2,14,0.01
2012-12-7,74.9,64.0,56.7,57.4,45.8,26.7,90,55,24,29.99,29.92,24,5,30,0.00
2012-12-8,65.1,60.2,51.9,54.6,36.8,17.3,89,48,19,30.00,29.93,10,3,0,0.00
2012-12-9,65.6,56.2,44.5,54.0,46.2,29.1,90,72,26,30.14,29.98,11,2,15,0.00
2012-12-10,71.0,65.2,63.0,32.3,29.2,27.6,27,26,23,30.17,30.14,19,7,27,0.00
2012-12-16,50.9,49.3,45.5,46.8,44.8,41.9,88,84,81,30.20,30.13,12,3,0,0.06
2012-12-17,56.7,53.3,50.8,51.9,48.0,44.9,90,82,80,30.20,30.01,8,1,0,0.07
2012-12-18,60.2,53.1,51.0,52.6,45.7,29.6,90,77,34,30.01,29.82,15,3,16,0.20